Terminal Aerodrome Forecast
Issued by NWS Sterling, VA

Current Version | Previous Version | Graphics & Text | Print | Product List | Glossary On
Versions: 1 2 3 4 5 6 7 8 9 10 11 12 13 14 15 16 17 18 19 20 21
000
FTUS41 KLWX 310526
TAFDCA
TAF
KDCA 310526Z 3106/0106 21005KT P6SM OVC100
     FM010100 21004KT P6SM SCT110=

USA.gov is the U.S. government's official web portal to all federal, state and local government web resources and services.